Year,Month,Day,Hour,Minute,Value (Times are PST for temperature in C)
2010,07,17,00,00,12.70
2010,07,17,00,01,12.70
2010,07,17,00,02,12.70
2010,07,17,00,03,12.70
2010,07,17,00,04,12.70
2010,07,17,00,05,12.70
2010,07,17,00,06,12.70
2010,07,17,00,07,12.70
2010,07,17,00,08,12.70
2010,07,17,00,09,12.70
2010,07,17,00,10,12.70
2010,07,17,00,11,12.70
2010,07,17,00,12,12.70
2010,07,17,00,13,12.70
2010,07,17,00,14,12.70
2010,07,17,00,15,12.70
2010,07,17,00,16,12.70
2010,07,17,00,17,12.60
2010,07,17,00,18,12.60
2010,07,17,00,19,12.60
2010,07,17,00,20,12.60
2010,07,17,00,21,12.60
2010,07,17,00,22,12.60
2010,07,17,00,23,12.60
2010,07,17,00,24,12.60
2010,07,17,00,25,12.60
2010,07,17,00,26,12.60
2010,07,17,00,27,12.60
2010,07,17,00,28,12.60
2010,07,17,00,29,12.60
2010,07,17,00,30,12.50
2010,07,17,00,31,12.50
2010,07,17,00,32,12.50
2010,07,17,00,33,12.50
2010,07,17,00,34,12.50
2010,07,17,00,35,12.40
2010,07,17,00,36,12.40
2010,07,17,00,37,12.40
2010,07,17,00,38,12.40
2010,07,17,00,39,12.40
2010,07,17,00,40,12.40
2010,07,17,00,41,12.30
2010,07,17,00,42,12.30
2010,07,17,00,43,12.30
2010,07,17,00,44,12.30
2010,07,17,00,45,12.30
2010,07,17,00,46,12.30
2010,07,17,00,47,12.30
2010,07,17,00,48,12.30
2010,07,17,00,49,12.30
2010,07,17,00,50,12.20
2010,07,17,00,51,12.20
2010,07,17,00,52,12.20
2010,07,17,00,53,12.20
2010,07,17,00,54,12.20
2010,07,17,00,55,12.20
2010,07,17,00,56,12.10
2010,07,17,00,57,12.10
2010,07,17,00,58,12.10
2010,07,17,00,59,12.10
2010,07,17,01,00,12.10
2010,07,17,01,01,12.00
2010,07,17,01,02,12.00
2010,07,17,01,03,12.00
2010,07,17,01,04,12.00
2010,07,17,01,05,11.90
2010,07,17,01,06,11.90
2010,07,17,01,07,11.90
2010,07,17,01,08,11.90
2010,07,17,01,09,11.90
2010,07,17,01,10,11.90
2010,07,17,01,11,11.80
2010,07,17,01,12,11.80
2010,07,17,01,13,11.80
2010,07,17,01,14,11.80
2010,07,17,01,15,11.80
2010,07,17,01,16,11.80
2010,07,17,01,17,11.70
2010,07,17,01,18,11.70
2010,07,17,01,19,11.70
2010,07,17,01,20,11.70
2010,07,17,01,21,11.70
2010,07,17,01,22,11.60
2010,07,17,01,23,11.60
2010,07,17,01,24,11.60
2010,07,17,01,25,11.60
2010,07,17,01,26,11.60
2010,07,17,01,27,11.60
2010,07,17,01,28,11.60
2010,07,17,01,29,11.60
2010,07,17,01,30,11.60
2010,07,17,01,31,11.60
2010,07,17,01,32,11.60
2010,07,17,01,33,11.60
2010,07,17,01,34,11.60
2010,07,17,01,35,11.60
2010,07,17,01,36,11.50
2010,07,17,01,37,11.50
2010,07,17,01,38,11.50
2010,07,17,01,39,11.50
2010,07,17,01,40,11.50
2010,07,17,01,41,11.50
2010,07,17,01,42,11.50
2010,07,17,01,43,11.50
2010,07,17,01,44,11.50
2010,07,17,01,45,11.50
2010,07,17,01,46,11.50
2010,07,17,01,47,11.50
2010,07,17,01,48,11.50
2010,07,17,01,49,11.50
2010,07,17,01,50,11.50
2010,07,17,01,51,11.50
2010,07,17,01,52,11.50
2010,07,17,01,53,11.40
2010,07,17,01,54,11.40
2010,07,17,01,55,11.40
2010,07,17,01,56,11.40
2010,07,17,01,57,11.40
2010,07,17,01,58,11.40
2010,07,17,01,59,11.40
2010,07,17,02,00,11.40
2010,07,17,02,01,11.40
2010,07,17,02,02,11.30
2010,07,17,02,03,11.30
2010,07,17,02,04,11.30
2010,07,17,02,05,11.30
2010,07,17,02,06,11.30
2010,07,17,02,07,11.30
2010,07,17,02,08,11.30
2010,07,17,02,09,11.30
2010,07,17,02,10,11.20
2010,07,17,02,11,11.20
2010,07,17,02,12,11.20
2010,07,17,02,13,11.20
2010,07,17,02,14,11.20
2010,07,17,02,15,11.20
2010,07,17,02,16,11.20
2010,07,17,02,17,11.20
2010,07,17,02,18,11.20
2010,07,17,02,19,11.20
2010,07,17,02,20,11.20
2010,07,17,02,21,11.20
2010,07,17,02,22,11.20
2010,07,17,02,23,11.20
2010,07,17,02,24,11.20
2010,07,17,02,25,11.20
2010,07,17,02,26,11.10
2010,07,17,02,27,11.10
2010,07,17,02,28,11.10
2010,07,17,02,29,11.10
2010,07,17,02,30,11.10
2010,07,17,02,31,11.10
2010,07,17,02,32,11.10
2010,07,17,02,33,11.10
2010,07,17,02,34,11.10
2010,07,17,02,35,11.00
2010,07,17,02,36,11.00
2010,07,17,02,37,11.00
2010,07,17,02,38,11.00
2010,07,17,02,39,11.00
2010,07,17,02,40,10.90
2010,07,17,02,41,10.90
2010,07,17,02,42,10.90
2010,07,17,02,43,10.90
2010,07,17,02,44,10.90
2010,07,17,02,45,10.90
2010,07,17,02,46,10.80
2010,07,17,02,47,10.80
2010,07,17,02,48,10.80
2010,07,17,02,49,10.80
2010,07,17,02,50,10.80
2010,07,17,02,51,10.80
2010,07,17,02,52,10.80
2010,07,17,02,53,10.80
2010,07,17,02,54,10.80
2010,07,17,02,55,10.80
2010,07,17,02,56,10.80
2010,07,17,02,57,10.80
2010,07,17,02,58,10.80
2010,07,17,02,59,10.80
2010,07,17,03,00,10.80
2010,07,17,03,01,10.80
2010,07,17,03,02,10.80
2010,07,17,03,06,10.80
2010,07,17,03,07,10.80
2010,07,17,03,08,10.80
2010,07,17,03,09,10.80
2010,07,17,03,10,10.80
2010,07,17,03,11,10.80
2010,07,17,03,12,10.80
2010,07,17,03,13,10.80
2010,07,17,03,14,10.80
2010,07,17,03,15,10.80
2010,07,17,03,16,10.80
2010,07,17,03,17,10.80
2010,07,17,03,18,10.80
2010,07,17,03,19,10.80
2010,07,17,03,20,10.80
2010,07,17,03,21,10.80
2010,07,17,03,22,10.80
2010,07,17,03,23,10.80
2010,07,17,03,24,10.80
2010,07,17,03,25,10.80
2010,07,17,03,26,10.80
2010,07,17,03,27,10.80
2010,07,17,03,28,10.70
2010,07,17,03,29,10.70
2010,07,17,03,30,10.70
2010,07,17,03,31,10.70
2010,07,17,03,32,10.70
2010,07,17,03,33,10.70
2010,07,17,03,34,10.70
2010,07,17,03,35,10.70
2010,07,17,03,36,10.70
2010,07,17,03,37,10.70
2010,07,17,03,38,10.70
2010,07,17,03,39,10.70
2010,07,17,03,40,10.70
2010,07,17,03,41,10.70
2010,07,17,03,42,10.70
2010,07,17,03,43,10.70
2010,07,17,03,44,10.60
2010,07,17,03,45,10.60
2010,07,17,03,46,10.60
2010,07,17,03,47,10.60
2010,07,17,03,48,10.60
2010,07,17,03,49,10.60
2010,07,17,03,50,10.50
2010,07,17,03,51,10.50
2010,07,17,03,52,10.50
2010,07,17,03,53,10.50
2010,07,17,03,54,10.50
2010,07,17,03,55,10.40
2010,07,17,03,56,10.40
2010,07,17,03,57,10.40
2010,07,17,03,58,10.40
2010,07,17,03,59,10.40
2010,07,17,04,00,10.40
2010,07,17,04,01,10.40
2010,07,17,04,02,10.30
2010,07,17,04,03,10.30
2010,07,17,04,04,10.30
2010,07,17,04,05,10.30
2010,07,17,04,06,10.30
2010,07,17,04,07,10.30
2010,07,17,04,08,10.30
2010,07,17,04,09,10.30
2010,07,17,04,10,10.30
2010,07,17,04,11,10.30
2010,07,17,04,12,10.30
2010,07,17,04,13,10.20
2010,07,17,04,14,10.20
2010,07,17,04,15,10.20
2010,07,17,04,16,10.20
2010,07,17,04,17,10.20
2010,07,17,04,18,10.20
2010,07,17,04,19,10.20
2010,07,17,04,20,10.20
2010,07,17,04,21,10.20
2010,07,17,04,22,10.20
2010,07,17,04,23,10.20
2010,07,17,04,24,10.20
2010,07,17,04,25,10.20
2010,07,17,04,26,10.10
2010,07,17,04,27,10.10
2010,07,17,04,28,10.10
2010,07,17,04,29,10.10
2010,07,17,04,30,10.10
2010,07,17,04,31,10.10
2010,07,17,04,32,10.10
2010,07,17,04,33,10.10
2010,07,17,04,34,10.10
2010,07,17,04,35,10.00
2010,07,17,04,36,10.00
2010,07,17,04,37,10.00
2010,07,17,04,38,10.00
2010,07,17,04,39,10.00
2010,07,17,04,40,10.00
2010,07,17,04,41,10.00
2010,07,17,04,42,10.00
2010,07,17,04,43,10.00
2010,07,17,04,44,10.00
2010,07,17,04,45,10.00
2010,07,17,04,46,10.00
2010,07,17,04,47,10.00
2010,07,17,04,48,10.00
2010,07,17,04,49,9.90
2010,07,17,04,50,9.90
2010,07,17,04,51,9.90
2010,07,17,04,52,9.90
2010,07,17,04,53,9.90
2010,07,17,04,54,9.90
2010,07,17,04,55,9.90
2010,07,17,04,56,9.90
2010,07,17,04,57,9.80
2010,07,17,04,58,9.80
2010,07,17,04,59,9.80
2010,07,17,05,00,9.80
2010,07,17,05,01,9.80
2010,07,17,05,02,9.80
2010,07,17,05,03,9.80
2010,07,17,05,04,9.80
2010,07,17,05,05,9.80
2010,07,17,05,06,9.80
2010,07,17,05,07,9.80
2010,07,17,05,08,9.80
2010,07,17,05,09,9.80
2010,07,17,05,10,9.80
2010,07,17,05,11,9.80
2010,07,17,05,12,9.70
2010,07,17,05,13,9.70
2010,07,17,05,14,9.70
2010,07,17,05,15,9.70
2010,07,17,05,16,9.70
2010,07,17,05,17,9.70
2010,07,17,05,18,9.70
2010,07,17,05,19,9.70
2010,07,17,05,20,9.70
2010,07,17,05,21,9.70
2010,07,17,05,22,9.70
2010,07,17,05,23,9.70
2010,07,17,05,24,9.70
2010,07,17,05,25,9.70
2010,07,17,05,26,9.70
2010,07,17,05,27,9.70
2010,07,17,05,28,9.60
2010,07,17,05,29,9.60
2010,07,17,05,30,9.60
2010,07,17,05,31,9.60
2010,07,17,05,32,9.60
2010,07,17,05,33,9.60
2010,07,17,05,34,9.60
2010,07,17,05,35,9.60
2010,07,17,05,36,9.60
2010,07,17,05,37,9.60
2010,07,17,05,38,9.60
2010,07,17,05,39,9.60
2010,07,17,05,40,9.60
2010,07,17,05,41,9.60
2010,07,17,05,42,9.60
2010,07,17,05,43,9.60
2010,07,17,05,44,9.60
2010,07,17,05,45,9.60
2010,07,17,05,46,9.60
2010,07,17,05,47,9.60
2010,07,17,05,48,9.60
2010,07,17,05,49,9.60
2010,07,17,05,50,9.60
2010,07,17,05,51,9.60
2010,07,17,05,52,9.60
2010,07,17,05,53,9.60
2010,07,17,05,54,9.50
2010,07,17,05,55,9.50
2010,07,17,05,56,9.50
2010,07,17,05,57,9.50
2010,07,17,05,58,9.50
2010,07,17,05,59,9.50
2010,07,17,06,00,9.50
2010,07,17,06,01,9.40
2010,07,17,06,02,9.40
2010,07,17,06,03,9.40
2010,07,17,06,04,9.40
2010,07,17,06,05,9.40
2010,07,17,06,06,9.40
2010,07,17,06,07,9.40
2010,07,17,06,08,9.40
2010,07,17,06,09,9.40
2010,07,17,06,10,9.40
2010,07,17,06,11,9.40
2010,07,17,06,12,9.40
2010,07,17,06,13,9.40
2010,07,17,06,14,9.40
2010,07,17,06,15,9.40
2010,07,17,06,16,9.40
2010,07,17,06,17,9.40
2010,07,17,06,18,9.40
2010,07,17,06,19,9.40
2010,07,17,06,20,9.40
2010,07,17,06,21,9.40
2010,07,17,06,22,9.40
2010,07,17,06,23,9.40
2010,07,17,06,24,9.40
2010,07,17,06,25,9.50
2010,07,17,06,26,9.50
2010,07,17,06,27,9.50
2010,07,17,06,28,9.50
2010,07,17,06,29,9.50
2010,07,17,06,30,9.50
2010,07,17,06,31,9.50
2010,07,17,06,32,9.60
2010,07,17,06,33,9.60
2010,07,17,06,34,9.60
2010,07,17,06,35,9.60
2010,07,17,06,36,9.70
2010,07,17,06,37,9.70
2010,07,17,06,38,9.70
2010,07,17,06,39,9.70
2010,07,17,06,40,9.80
2010,07,17,06,41,9.80
2010,07,17,06,42,9.80
2010,07,17,06,43,9.80
2010,07,17,06,44,9.80
2010,07,17,06,45,9.80
2010,07,17,06,46,9.90
2010,07,17,06,47,9.90
2010,07,17,06,48,9.90
2010,07,17,06,49,9.90
2010,07,17,06,50,9.90
2010,07,17,06,51,10.00
2010,07,17,06,52,10.00
2010,07,17,06,53,10.00
2010,07,17,06,54,10.00
2010,07,17,06,55,10.00
2010,07,17,06,56,10.00
2010,07,17,06,57,10.10
2010,07,17,06,58,10.10
2010,07,17,06,59,10.10
2010,07,17,07,00,10.10
2010,07,17,07,01,10.10
2010,07,17,07,02,10.10
2010,07,17,07,03,10.20
2010,07,17,07,04,10.20
2010,07,17,07,05,10.20
2010,07,17,07,06,10.20
2010,07,17,07,07,10.20
2010,07,17,07,08,10.20
2010,07,17,07,09,10.30
2010,07,17,07,10,10.30
2010,07,17,07,11,10.30
2010,07,17,07,12,10.40
2010,07,17,07,13,10.40
2010,07,17,07,14,10.40
2010,07,17,07,15,10.50
2010,07,17,07,16,10.50
2010,07,17,07,17,10.60
2010,07,17,07,18,10.60
2010,07,17,07,19,10.70
2010,07,17,07,20,10.70
2010,07,17,07,21,10.70
2010,07,17,07,22,10.80
2010,07,17,07,23,10.80
2010,07,17,07,24,10.80
2010,07,17,07,25,10.90
2010,07,17,07,26,10.90
2010,07,17,07,27,10.90
2010,07,17,07,28,11.00
2010,07,17,07,29,11.00
2010,07,17,07,30,11.00
2010,07,17,07,31,11.10
2010,07,17,07,32,11.10
2010,07,17,07,33,11.10
2010,07,17,07,34,11.20
2010,07,17,07,35,11.20
2010,07,17,07,36,11.20
2010,07,17,07,37,11.20
2010,07,17,07,38,11.30
2010,07,17,07,39,11.30
2010,07,17,07,40,11.30
2010,07,17,07,41,11.40
2010,07,17,07,42,11.40
2010,07,17,07,43,11.40
2010,07,17,07,44,11.50
2010,07,17,07,45,11.60
2010,07,17,07,46,11.60
2010,07,17,07,47,11.60
2010,07,17,07,48,11.70
2010,07,17,07,49,11.70
2010,07,17,07,50,11.80
2010,07,17,07,51,11.80
2010,07,17,07,52,11.90
2010,07,17,07,53,11.90
2010,07,17,07,54,12.00
2010,07,17,07,55,12.00
2010,07,17,07,56,12.10
2010,07,17,07,57,12.10
2010,07,17,07,58,12.20
2010,07,17,07,59,12.30
2010,07,17,08,00,12.40
2010,07,17,08,01,12.50
2010,07,17,08,02,12.60
2010,07,17,08,03,12.70
2010,07,17,08,04,12.80
2010,07,17,08,05,12.90
2010,07,17,08,06,13.00
2010,07,17,08,07,13.20
2010,07,17,08,08,13.30
2010,07,17,08,09,13.50
2010,07,17,08,10,13.60
2010,07,17,08,11,13.80
2010,07,17,08,12,13.90
2010,07,17,08,13,14.00
2010,07,17,08,14,14.10
2010,07,17,08,15,14.20
2010,07,17,08,16,14.30
2010,07,17,08,17,14.40
2010,07,17,08,18,14.50
2010,07,17,08,19,14.60
2010,07,17,08,20,14.70
2010,07,17,08,21,14.80
2010,07,17,08,22,14.90
2010,07,17,08,23,15.00
2010,07,17,08,24,15.00
2010,07,17,08,25,15.00
2010,07,17,08,26,15.00
2010,07,17,08,27,15.00
2010,07,17,08,28,15.00
2010,07,17,08,29,15.10
2010,07,17,08,30,15.20
2010,07,17,08,31,15.30
2010,07,17,08,32,15.30
2010,07,17,08,33,15.40
2010,07,17,08,34,15.40
2010,07,17,08,35,15.50
2010,07,17,08,36,15.50
2010,07,17,08,37,15.50
2010,07,17,08,38,15.60
2010,07,17,08,39,15.60
2010,07,17,08,40,15.60
2010,07,17,08,41,15.60
2010,07,17,08,42,15.60
2010,07,17,08,43,15.60
2010,07,17,08,44,15.70
2010,07,17,08,45,15.70
2010,07,17,08,46,15.70
2010,07,17,08,47,15.70
2010,07,17,08,48,15.70
2010,07,17,08,49,15.80
2010,07,17,08,50,15.80
2010,07,17,08,51,15.80
2010,07,17,08,52,15.90
2010,07,17,08,53,15.90
2010,07,17,08,54,16.00
2010,07,17,08,55,16.10
2010,07,17,08,56,16.10
2010,07,17,08,57,16.20
2010,07,17,08,58,16.20
2010,07,17,08,59,16.30
2010,07,17,09,00,16.30
2010,07,17,09,01,16.40
2010,07,17,09,02,16.50
2010,07,17,09,03,16.50
2010,07,17,09,04,16.60
2010,07,17,09,05,16.60
2010,07,17,09,06,16.60
2010,07,17,09,07,16.60
2010,07,17,09,08,16.70
2010,07,17,09,09,16.60
2010,07,17,09,10,16.60
2010,07,17,09,11,16.60
2010,07,17,09,12,16.60
2010,07,17,09,13,16.70
2010,07,17,09,14,16.70
2010,07,17,09,15,16.70
2010,07,17,09,16,16.80
2010,07,17,09,17,16.80
2010,07,17,09,18,16.90
2010,07,17,09,19,16.90
2010,07,17,09,20,17.00
2010,07,17,09,21,17.10
2010,07,17,09,22,17.20
2010,07,17,09,23,17.20
2010,07,17,09,24,17.30
2010,07,17,09,25,17.40
2010,07,17,09,26,17.40
2010,07,17,09,27,17.50
2010,07,17,09,28,17.50
2010,07,17,09,29,17.60
2010,07,17,09,30,17.60
2010,07,17,09,31,17.60
2010,07,17,09,32,17.50
2010,07,17,09,33,17.50
2010,07,17,09,34,17.60
2010,07,17,09,35,17.60
2010,07,17,09,36,17.70
2010,07,17,09,37,17.80
2010,07,17,09,38,17.80
2010,07,17,09,39,17.90
2010,07,17,09,40,18.00
2010,07,17,09,41,18.00
2010,07,17,09,42,18.20
2010,07,17,09,43,18.20
2010,07,17,09,44,18.30
2010,07,17,09,45,18.30
2010,07,17,09,46,18.30
2010,07,17,09,47,18.30
2010,07,17,09,48,18.30
2010,07,17,09,49,18.20
2010,07,17,09,50,18.20
2010,07,17,09,51,18.30
2010,07,17,09,52,18.30
2010,07,17,09,53,18.30
2010,07,17,09,54,18.30
2010,07,17,09,55,18.30
2010,07,17,09,56,18.30
2010,07,17,09,57,18.40
2010,07,17,09,58,18.50
2010,07,17,09,59,18.60
2010,07,17,10,00,18.60
2010,07,17,10,01,18.50
2010,07,17,10,02,18.50
2010,07,17,10,03,18.60
2010,07,17,10,04,18.60
2010,07,17,10,05,18.60
2010,07,17,10,06,18.70
2010,07,17,10,07,18.80
2010,07,17,10,08,18.90
2010,07,17,10,09,18.90
2010,07,17,10,10,18.90
2010,07,17,10,11,18.90
2010,07,17,10,12,18.90
2010,07,17,10,13,18.90
2010,07,17,10,14,18.90
2010,07,17,10,15,18.80
2010,07,17,10,16,18.80
2010,07,17,10,17,18.80
2010,07,17,10,18,18.80
2010,07,17,10,19,18.80
2010,07,17,10,20,18.80
2010,07,17,10,21,18.70
2010,07,17,10,22,18.70
2010,07,17,10,23,18.70
2010,07,17,10,24,18.70
2010,07,17,10,25,18.70
2010,07,17,10,26,18.70
2010,07,17,10,27,18.80
2010,07,17,10,28,18.80
2010,07,17,10,29,18.70
2010,07,17,10,30,18.70
2010,07,17,10,31,18.80
2010,07,17,10,32,18.90
2010,07,17,10,33,19.00
2010,07,17,10,34,19.00
2010,07,17,10,35,19.10
2010,07,17,10,36,19.20
2010,07,17,10,37,19.20
2010,07,17,10,38,19.30
2010,07,17,10,39,19.40
2010,07,17,10,40,19.50
2010,07,17,10,41,19.60
2010,07,17,10,42,19.60
2010,07,17,10,43,19.50
2010,07,17,10,44,19.50
2010,07,17,10,45,19.50
2010,07,17,10,46,19.50
2010,07,17,10,47,19.50
2010,07,17,10,48,19.40
2010,07,17,10,49,19.50
2010,07,17,10,50,19.50
2010,07,17,10,51,19.40
2010,07,17,10,52,19.50
2010,07,17,10,53,19.50
2010,07,17,10,54,19.50
2010,07,17,10,55,19.60
2010,07,17,10,56,19.60
2010,07,17,10,57,19.70
2010,07,17,10,58,19.70
2010,07,17,10,59,19.70
2010,07,17,11,00,19.70
2010,07,17,11,01,19.80
2010,07,17,11,02,19.80
2010,07,17,11,03,19.80
2010,07,17,11,04,19.90
2010,07,17,11,05,19.90
2010,07,17,11,06,19.90
2010,07,17,11,07,19.90
2010,07,17,11,08,20.00
2010,07,17,11,09,20.00
2010,07,17,11,10,20.10
2010,07,17,11,11,20.10
2010,07,17,11,12,20.10
2010,07,17,11,13,20.20
2010,07,17,11,14,20.20
2010,07,17,11,15,20.40
2010,07,17,11,16,20.50
2010,07,17,11,17,20.60
2010,07,17,11,18,20.70
2010,07,17,11,19,20.70
2010,07,17,11,20,20.80
2010,07,17,11,21,20.90
2010,07,17,11,22,21.00
2010,07,17,11,23,21.00
2010,07,17,11,24,21.00
2010,07,17,11,25,20.90
2010,07,17,11,26,20.90
2010,07,17,11,27,20.80
2010,07,17,11,28,20.80
2010,07,17,11,29,20.70
2010,07,17,11,30,20.70
2010,07,17,11,31,20.60
2010,07,17,11,32,20.70
2010,07,17,11,33,20.70
2010,07,17,11,34,20.70
2010,07,17,11,35,20.70
2010,07,17,11,36,20.80
2010,07,17,11,37,20.80
2010,07,17,11,38,20.90
2010,07,17,11,39,20.90
2010,07,17,11,40,21.00
2010,07,17,11,41,21.00
2010,07,17,11,42,21.00
2010,07,17,11,43,21.00
2010,07,17,11,44,20.90
2010,07,17,11,45,20.80
2010,07,17,11,46,20.70
2010,07,17,11,47,20.70
2010,07,17,11,48,20.60
2010,07,17,11,49,20.50
2010,07,17,11,50,20.50
2010,07,17,11,51,20.60
2010,07,17,11,52,20.60
2010,07,17,11,53,20.60
2010,07,17,11,54,20.60
2010,07,17,11,55,20.60
2010,07,17,11,56,20.50
2010,07,17,11,57,20.40
2010,07,17,11,58,20.40
2010,07,17,11,59,20.30
2010,07,17,12,00,20.20
2010,07,17,12,01,20.10
2010,07,17,12,02,20.00
2010,07,17,12,03,20.00
2010,07,17,12,04,20.10
2010,07,17,12,05,20.10
2010,07,17,12,06,20.10
2010,07,17,12,07,20.20
2010,07,17,12,08,20.30
2010,07,17,12,09,20.30
2010,07,17,12,10,20.40
2010,07,17,12,11,20.40
2010,07,17,12,12,20.40
2010,07,17,12,13,20.40
2010,07,17,12,14,20.40
2010,07,17,12,15,20.50
2010,07,17,12,16,20.40
2010,07,17,12,17,20.40
2010,07,17,12,18,20.40
2010,07,17,12,19,20.40
2010,07,17,12,20,20.40
2010,07,17,12,21,20.40
2010,07,17,12,22,20.40
2010,07,17,12,23,20.40
2010,07,17,12,24,20.40
2010,07,17,12,25,20.40
2010,07,17,12,26,20.30
2010,07,17,12,27,20.30
2010,07,17,12,28,20.30
2010,07,17,12,29,20.30
2010,07,17,12,30,20.30
2010,07,17,12,31,20.30
2010,07,17,12,32,20.30
2010,07,17,12,33,20.30
2010,07,17,12,34,20.20
2010,07,17,12,35,20.20
2010,07,17,12,36,20.20
2010,07,17,12,37,20.30
2010,07,17,12,38,20.30
2010,07,17,12,39,20.30
2010,07,17,12,40,20.30
2010,07,17,12,41,20.30
2010,07,17,12,42,20.30
2010,07,17,12,43,20.30
2010,07,17,12,44,20.30
2010,07,17,12,45,20.30
2010,07,17,12,46,20.30
2010,07,17,12,47,20.20
2010,07,17,12,48,20.20
2010,07,17,12,49,20.30
2010,07,17,12,50,20.30
2010,07,17,12,51,20.30
2010,07,17,12,52,20.30
2010,07,17,12,53,20.30
2010,07,17,12,54,20.30
2010,07,17,12,55,20.30
2010,07,17,12,56,20.20
2010,07,17,12,57,20.20
2010,07,17,12,58,20.20
2010,07,17,12,59,20.20
2010,07,17,13,00,20.20
2010,07,17,13,01,20.20
2010,07,17,13,02,20.20
2010,07,17,13,03,20.20
2010,07,17,13,04,20.20
2010,07,17,13,05,20.20
2010,07,17,13,06,20.20
2010,07,17,13,07,20.20
2010,07,17,13,08,20.20
2010,07,17,13,09,20.20
2010,07,17,13,10,20.10
2010,07,17,13,11,20.10
2010,07,17,13,12,20.00
2010,07,17,13,13,19.90
2010,07,17,13,14,19.90
2010,07,17,13,15,19.90
2010,07,17,13,16,19.80
2010,07,17,13,17,19.70
2010,07,17,13,18,19.60
2010,07,17,13,19,19.60
2010,07,17,13,20,19.60
2010,07,17,13,21,19.60
2010,07,17,13,22,19.60
2010,07,17,13,23,19.60
2010,07,17,13,24,19.70
2010,07,17,13,25,19.70
2010,07,17,13,26,19.70
2010,07,17,13,27,19.80
2010,07,17,13,28,19.80
2010,07,17,13,29,19.80
2010,07,17,13,30,19.80
2010,07,17,13,31,19.90
2010,07,17,13,32,20.00
2010,07,17,13,33,20.00
2010,07,17,13,34,20.00
2010,07,17,13,35,20.10
2010,07,17,13,36,20.10
2010,07,17,13,37,20.10
2010,07,17,13,38,20.20
2010,07,17,13,39,20.20
2010,07,17,13,40,20.20
2010,07,17,13,41,20.20
2010,07,17,13,42,20.20
2010,07,17,13,43,20.10
2010,07,17,13,44,20.10
2010,07,17,13,45,20.10
2010,07,17,13,46,20.10
2010,07,17,13,47,20.10
2010,07,17,13,48,20.10
2010,07,17,13,49,20.10
2010,07,17,13,50,20.10
2010,07,17,13,51,20.10
2010,07,17,13,52,20.10
2010,07,17,13,53,20.10
2010,07,17,13,54,20.20
2010,07,17,13,55,20.30
2010,07,17,13,56,20.30
2010,07,17,13,57,20.40
2010,07,17,13,58,20.50
2010,07,17,13,59,20.60
2010,07,17,14,00,20.60
2010,07,17,14,01,20.70
2010,07,17,14,02,20.70
2010,07,17,14,03,20.70
2010,07,17,14,04,20.60
2010,07,17,14,05,20.50
2010,07,17,14,06,20.50
2010,07,17,14,07,20.40
2010,07,17,14,08,20.30
2010,07,17,14,09,20.20
2010,07,17,14,10,20.10
2010,07,17,14,11,20.00
2010,07,17,14,12,19.90
2010,07,17,14,13,19.90
2010,07,17,14,14,19.90
2010,07,17,14,15,19.90
2010,07,17,14,16,20.00
2010,07,17,14,17,20.00
2010,07,17,14,18,20.00
2010,07,17,14,19,19.90
2010,07,17,14,20,20.00
2010,07,17,14,21,20.00
2010,07,17,14,22,20.10
2010,07,17,14,23,20.20
2010,07,17,14,24,20.20
2010,07,17,14,25,20.20
2010,07,17,14,26,20.30
2010,07,17,14,27,20.30
2010,07,17,14,28,20.30
2010,07,17,14,29,20.30
2010,07,17,14,30,20.30
2010,07,17,14,31,20.30
2010,07,17,14,32,20.30
2010,07,17,14,33,20.30
2010,07,17,14,34,20.30
2010,07,17,14,35,20.30
2010,07,17,14,36,20.40
2010,07,17,14,37,20.50
2010,07,17,14,38,20.50
2010,07,17,14,39,20.60
2010,07,17,14,40,20.60
2010,07,17,14,41,20.70
2010,07,17,14,42,20.70
2010,07,17,14,43,20.70
2010,07,17,14,44,20.80
2010,07,17,14,45,20.70
2010,07,17,14,46,20.70
2010,07,17,14,47,20.70
2010,07,17,14,48,20.70
2010,07,17,14,49,20.80
2010,07,17,14,50,20.80
2010,07,17,14,51,20.80
2010,07,17,14,52,20.70
2010,07,17,14,53,20.70
2010,07,17,14,54,20.70
2010,07,17,14,55,20.70
2010,07,17,14,56,20.70
2010,07,17,14,57,20.70
2010,07,17,14,58,20.70
2010,07,17,14,59,20.70
2010,07,17,15,00,20.70
2010,07,17,15,01,20.60
2010,07,17,15,02,20.60
2010,07,17,15,03,20.50
2010,07,17,15,04,20.50
2010,07,17,15,05,20.40
2010,07,17,15,06,20.40
2010,07,17,15,07,20.40
2010,07,17,15,08,20.40
2010,07,17,15,09,20.40
2010,07,17,15,10,20.30
2010,07,17,15,11,20.30
2010,07,17,15,12,20.30
2010,07,17,15,13,20.30
2010,07,17,15,14,20.30
2010,07,17,15,15,20.30
2010,07,17,15,16,20.30
2010,07,17,15,17,20.40
2010,07,17,15,18,20.50
2010,07,17,15,19,20.60
2010,07,17,15,20,20.70
2010,07,17,15,21,20.80
2010,07,17,15,22,20.80
2010,07,17,15,23,20.90
2010,07,17,15,24,21.00
2010,07,17,15,25,21.10
2010,07,17,15,26,21.20
2010,07,17,15,27,21.20
2010,07,17,15,28,21.20
2010,07,17,15,29,21.30
2010,07,17,15,30,21.30
2010,07,17,15,31,21.20
2010,07,17,15,32,21.20
2010,07,17,15,33,21.20
2010,07,17,15,34,21.20
2010,07,17,15,35,21.20
2010,07,17,15,36,21.10
2010,07,17,15,37,21.00
2010,07,17,15,38,20.90
2010,07,17,15,39,20.90
2010,07,17,15,40,21.00
2010,07,17,15,41,21.00
2010,07,17,15,42,21.10
2010,07,17,15,43,21.20
2010,07,17,15,44,21.20
2010,07,17,15,45,21.20
2010,07,17,15,46,21.20
2010,07,17,15,47,21.20
2010,07,17,15,48,21.20
2010,07,17,15,49,21.20
2010,07,17,15,50,21.20
2010,07,17,15,51,21.20
2010,07,17,15,52,21.20
2010,07,17,15,53,21.10
2010,07,17,15,54,21.10
2010,07,17,15,55,21.10
2010,07,17,15,56,21.10
2010,07,17,15,57,21.10
2010,07,17,15,58,21.10
2010,07,17,15,59,21.10
2010,07,17,16,00,21.20
2010,07,17,16,01,21.20
2010,07,17,16,02,21.20
2010,07,17,16,03,21.20
2010,07,17,16,04,21.30
2010,07,17,16,05,21.30
2010,07,17,16,06,21.30
2010,07,17,16,07,21.20
2010,07,17,16,08,21.30
2010,07,17,16,09,21.30
2010,07,17,16,10,21.30
2010,07,17,16,11,21.30
2010,07,17,16,12,21.20
2010,07,17,16,13,21.20
2010,07,17,16,14,21.30
2010,07,17,16,15,21.30
2010,07,17,16,16,21.30
2010,07,17,16,17,21.30
2010,07,17,16,18,21.30
2010,07,17,16,19,21.20
2010,07,17,16,20,21.20
2010,07,17,16,21,21.20
2010,07,17,16,22,21.20
2010,07,17,16,23,21.20
2010,07,17,16,24,21.20
2010,07,17,16,25,21.10
2010,07,17,16,26,21.10
2010,07,17,16,27,21.10
2010,07,17,16,28,21.10
2010,07,17,16,29,21.10
2010,07,17,16,30,21.10
2010,07,17,16,31,21.00
2010,07,17,16,32,21.00
2010,07,17,16,33,20.90
2010,07,17,16,34,20.90
2010,07,17,16,35,20.90
2010,07,17,16,36,20.90
2010,07,17,16,37,20.80
2010,07,17,16,38,20.80
2010,07,17,16,39,20.70
2010,07,17,16,40,20.70
2010,07,17,16,41,20.70
2010,07,17,16,42,20.60
2010,07,17,16,43,20.60
2010,07,17,16,44,20.60
2010,07,17,16,45,20.60
2010,07,17,16,46,20.60
2010,07,17,16,47,20.50
2010,07,17,16,48,20.50
2010,07,17,16,49,20.50
2010,07,17,16,50,20.50
2010,07,17,16,51,20.60
2010,07,17,16,52,20.60
2010,07,17,16,53,20.60
2010,07,17,16,54,20.60
2010,07,17,16,55,20.60
2010,07,17,16,56,20.60
2010,07,17,16,57,20.60
2010,07,17,16,58,20.60
2010,07,17,16,59,20.70
2010,07,17,17,00,20.70
2010,07,17,17,01,20.70
2010,07,17,17,02,20.70
2010,07,17,17,03,20.70
2010,07,17,17,04,20.80
2010,07,17,17,05,20.80
2010,07,17,17,06,20.80
2010,07,17,17,07,20.80
2010,07,17,17,08,20.80
2010,07,17,17,09,20.90
2010,07,17,17,10,20.90
2010,07,17,17,11,20.90
2010,07,17,17,12,21.00
2010,07,17,17,13,21.00
2010,07,17,17,14,21.10
2010,07,17,17,15,21.10
2010,07,17,17,16,21.10
2010,07,17,17,17,21.10
2010,07,17,17,18,21.10
2010,07,17,17,19,21.20
2010,07,17,17,20,21.20
2010,07,17,17,21,21.20
2010,07,17,17,22,21.20
2010,07,17,17,23,21.10
2010,07,17,17,24,21.10
2010,07,17,17,25,21.10
2010,07,17,17,26,21.20
2010,07,17,17,27,21.10